Salina, KS

4:49 AM CDT on May 24, 2017 (GMT -0500)
Salina Municipal

Weather History for KSLN - April, 2012

Change the Weather History Date:

Wednesday, April 25, 2012

  Actual Average Record
Temperature  
Mean Temperature 76 °F 58 °F  
Max Temperature 92 °F 70 °F 94 °F (1989)
Min Temperature 59 °F 47 °F 31 °F (1910)
Degree Days  
Heating Degree Days 0 8  
Month to date heating degree days 173 283  
Since 1 July heating degree days 4033 4733  
Cooling Degree Days 11 1  
Month to date cooling degree days 30 17  
Year to date cooling degree days 72 19  
Growing Degree Days 26 (Base 50)    
Moisture  
Dew Point 53 °F    
Average Humidity 48    
Maximum Humidity 67    
Minimum Humidity 29    
Precipitation  
Precipitation 0.00 in 0.12 in 0.68 in (1999)
Month to date precipitation 2.77 2.48  
Year to date precipitation 6.81 6.67  
Sea Level Pressure  
Sea Level Pressure 29.61 in    
Wind  
Wind Speed 7 mph (NW)    
Max Wind Speed 20 mph    
Max Gust Speed 24 mph    
Visibility 10 miles    
Events      
T = Trace of Precipitation, MM = Missing Value Source: NWS Daily Summary

Daily Weather History Graph

Daily Weather History Graph

Search for Another Location

Airport or City:

Trip Planner

Search our weather history database for the weather conditions in past years. The results will help you decide how hot, cold, wet, or windy it might be!

Date:

Astronomy

Apr. 25, 2012 Rise Set
Actual Time 6:39 AM CDT 8:17 PM CDT
Civil Twilight 6:11 AM CDT 8:46 PM CDT
Nautical Twilight 5:37 AM CDT 9:20 PM CDT
Astronomical Twilight 5:01 AM CDT 9:56 PM CDT
Moon 9:27 AM CDT (4/25) No Moon Set
Length of Visible Light 14h 34m
Length of Day
13h 37m
Waxing Crescent, 17% of the Moon is Illuminated
Apr 25
Waxing Crescent
Apr 29
First Quarter
May 5
Full
May 12
Last Quarter
May 20
New

Hourly Weather History & Observations

Time (CDT) Temp. Heat Index Dew Point Humidity Pressure Visibility Wind Dir Wind Speed Gust Speed Precip Events Conditions
12:53 AM 72.0 °F - 50.0 °F 46% 29.50 in 10.0 mi SSW 12.7 mph - N/A   Clear
1:53 AM 70.0 °F - 50.0 °F 49% 29.50 in 10.0 mi SW 11.5 mph - N/A   Clear
2:53 AM 62.1 °F - 52.0 °F 70% 29.50 in 10.0 mi South 6.9 mph - N/A   Clear
3:53 AM 62.1 °F - 50.0 °F 65% 29.51 in 10.0 mi Calm Calm - N/A   Clear
4:53 AM 64.0 °F - 46.9 °F 54% 29.51 in 10.0 mi Calm Calm - N/A   Clear
5:53 AM 69.1 °F - 44.1 °F 40% 29.53 in 10.0 mi West 9.2 mph - N/A   Clear
6:53 AM 61.0 °F - 46.0 °F 58% 29.56 in 10.0 mi WNW 5.8 mph - N/A   Clear
7:53 AM 66.9 °F - 51.1 °F 57% 29.57 in 10.0 mi NNW 4.6 mph - N/A   Clear
8:53 AM 73.0 °F - 51.1 °F 46% 29.58 in 10.0 mi WNW 10.4 mph - N/A   Clear
9:53 AM 78.1 °F - 51.1 °F 39% 29.60 in 10.0 mi WNW 15.0 mph - N/A   Clear
10:53 AM 81.0 °F 80.4 °F 53.1 °F 38% 29.60 in 10.0 mi NW 12.7 mph - N/A   Clear
11:53 AM 84.9 °F 83.3 °F 54.0 °F 34% 29.61 in 10.0 mi WNW 9.2 mph - N/A   Clear
12:53 PM 89.1 °F 86.9 °F 54.0 °F 30% 29.60 in 10.0 mi North 15.0 mph - N/A   Clear
1:53 PM 91.0 °F 89.2 °F 55.9 °F 30% 29.61 in 10.0 mi NNW 12.7 mph - N/A   Clear
2:53 PM 91.9 °F 90.0 °F 55.0 °F 29% 29.63 in 10.0 mi NNW 11.5 mph - N/A   Clear
3:53 PM 90.0 °F 88.6 °F 57.0 °F 33% 29.63 in 10.0 mi NNW 9.2 mph - N/A   Clear
4:53 PM 88.0 °F 87.1 °F 59.0 °F 37% 29.64 in 10.0 mi NW 9.2 mph - N/A   Clear
5:53 PM 86.0 °F 85.7 °F 60.1 °F 41% 29.65 in 10.0 mi NW 5.8 mph - N/A   Clear
6:53 PM 84.9 °F 85.4 °F 62.1 °F 46% 29.67 in 10.0 mi Calm Calm - N/A   Clear
7:53 PM 80.1 °F 80.7 °F 59.0 °F 48% 29.68 in 10.0 mi NW 8.1 mph - N/A   Clear
8:53 PM 72.0 °F - 55.9 °F 57% 29.71 in - NNW 5.8 mph - N/A   Clear
9:53 PM 72.0 °F - 53.1 °F 51% 29.75 in 10.0 mi Calm Calm - N/A   Clear
10:53 PM 66.0 °F - 51.1 °F 59% 29.78 in 10.0 mi NNW 8.1 mph - N/A   Clear
11:53 PM 66.0 °F - 48.0 °F 52% 29.79 in 10.0 mi NNW 3.5 mph - N/A   Clear